Location: Unspecified
(0.0000°N, 0.0000°E)
Time: 04:01:24
(UTC+00:00)

Vanguard 3 - All Passes

Search period start: 20 August 2017 00:00
Search period end: 30 August 2017 00:00
Orbit: 509 x 3265 km, 33.3° (Epoch: 19 August)

Date Brightness Start Highest point End Pass type
(mag) Time Alt. Az. Time Alt. Az. Time Alt. Az.
20 Aug - 05:47:31 10° NNW 05:51:18 19° NNE 05:54:18 10° ENE daylight
20 Aug - 07:59:30 10° W 08:03:01 32° SW 08:06:26 10° SSE daylight
20 Aug - 14:45:34 10° S 14:50:06 13° SSE 14:55:25 10° SE daylight
20 Aug - 16:53:27 10° SSW 17:06:38 43° SE 17:24:37 10° ENE daylight
20 Aug - 19:06:00 10° SW 19:23:31 84° NW 19:43:20 10° NE visible
20 Aug - 21:24:03 10° W 21:41:34 38° NNW 21:57:02 10° NNE visible
20 Aug - 23:52:33 10° NW 00:00:45 14° NNW 00:07:39 10° N visible
21 Aug - 04:34:40 10° N 04:36:54 12° NNE 04:38:50 10° NE visible
21 Aug - 06:45:10 10° NW 06:49:55 72° NE 06:53:36 10° ESE daylight
21 Aug - 15:40:46 10° SSW 15:50:34 26° SE 16:04:07 10° E daylight
21 Aug - 17:51:21 10° SW 18:06:37 71° SE 18:26:42 10° ENE visible
21 Aug - 20:06:14 10° WSW 20:24:10 55° NW 20:42:30 10° NE visible
21 Aug - 22:29:05 10° WNW 22:43:05 23° NNW 22:54:52 10° NNE visible
22 Aug - 05:31:08 10° NNW 05:36:22 29° NNE 05:40:04 10° E visible
22 Aug - 07:44:41 10° W 07:47:55 22° SW 07:50:51 10° SSE daylight
22 Aug - 14:29:57 10° S 14:34:45 13° SSE 14:40:33 10° ESE daylight
22 Aug - 16:37:46 10° SSW 16:50:20 48° SE 17:08:30 10° ENE daylight
22 Aug - 18:50:16 10° WSW 19:06:53 76° NW 19:26:58 10° NE visible
22 Aug - 21:08:38 10° W 21:25:21 35° NNW 21:40:55 10° NNE visible
22 Aug - 23:37:22 10° NW 23:45:31 14° NNW 23:52:29 10° N visible
23 Aug - 04:17:04 10° NNW 04:22:01 18° NNE 04:25:43 10° ENE visible
23 Aug - 06:29:35 10° WNW 06:34:51 74° SW 06:38:37 10° SE daylight
23 Aug - 15:25:10 10° SSW 15:34:40 29° SE 15:48:23 10° E daylight
23 Aug - 17:35:41 10° SW 17:50:05 79° SE 18:10:18 10° ENE daylight
23 Aug - 19:50:42 10° WSW 20:07:43 49° NNW 20:26:07 10° NE visible
23 Aug - 22:14:01 10° WNW 22:27:24 21° NNW 22:39:05 10° NNE visible
24 Aug - 00:46:04 10° NNW 00:48:25 10° N 00:50:37 10° N visible
24 Aug - 03:02:36 10° NNW 03:06:52 13° NNE 03:10:20 10° NE visible
24 Aug - 05:14:53 10° NW 05:21:22 43° NNE 05:25:34 10° ESE visible
24 Aug - 07:30:05 10° WSW 07:32:44 16° SW 07:35:08 10° S daylight
24 Aug - 14:14:16 10° S 14:19:19 14° SE 14:25:36 10° ESE daylight
24 Aug - 16:22:09 10° SW 16:34:02 53° SE 16:52:13 10° ENE daylight
24 Aug - 18:34:43 10° WSW 18:50:22 68° NW 19:10:26 10° NE visible
24 Aug - 20:53:24 10° W 21:09:17 31° NNW 21:24:44 10° NNE visible
24 Aug - 23:22:00 10° NW 23:30:22 14° NNW 23:37:35 10° NNE visible
25 Aug - 01:46:50 10° NNW 01:50:46 12° N 01:54:08 10° NNE visible
25 Aug - 04:00:06 10° NNW 04:07:06 25° NNE 04:11:45 10° ENE visible
25 Aug - 06:14:03 10° WNW 06:19:40 51° SW 06:23:33 10° SE daylight
25 Aug - 15:09:37 10° SSW 15:18:43 32° SE 15:32:31 10° E daylight
25 Aug - 17:20:08 10° SW 17:33:38 87° SE 17:53:42 10° NE daylight
25 Aug - 19:35:22 10° W 19:51:24 44° NNW 20:09:38 10° NE visible
25 Aug - 21:59:03 10° WNW 22:11:51 20° NNW 22:23:21 10° NNE visible
26 Aug - 00:28:07 10° NNW 00:33:32 12° N 00:38:13 10° NNE visible
26 Aug - 02:44:53 10° NNW 02:51:58 19° NNE 02:57:03 10° ENE visible
26 Aug - 04:58:40 10° NW 05:06:19 63° NNE 05:10:53 10° ESE visible
26 Aug - 07:15:52 10° WSW 07:17:31 12° SW 07:19:02 10° SSW daylight
26 Aug - 13:58:37 10° S 14:03:49 16° SE 14:10:32 10° ESE daylight
26 Aug - 16:06:39 10° SW 16:17:48 60° SE 16:35:47 10° ENE daylight
26 Aug - 18:19:20 10° WSW 18:34:00 60° NNW 18:53:44 10° NE visible
26 Aug - 20:38:24 10° WNW 20:53:22 28° NNW 21:08:29 10° NNE visible
26 Aug - 23:06:25 10° NW 23:15:16 15° N 23:22:56 10° NNE visible
27 Aug - 01:28:43 10° NNW 01:35:51 15° N 01:41:24 10° NE visible
27 Aug - 03:43:17 10° NW 03:52:05 35° NNE 03:57:28 10° E visible
27 Aug - 05:58:32 10° WNW 06:04:25 37° SW 06:08:24 10° SSE daylight
27 Aug - 14:54:08 10° SSW 15:02:48 35° SE 15:16:30 10° E daylight
27 Aug - 17:04:45 10° WSW 17:17:20 84° NW 17:36:58 10° NE daylight
27 Aug - 19:20:15 10° W 19:35:16 39° NNW 19:53:02 10° NE visible
27 Aug - 21:44:10 10° NW 21:56:25 19° NNW 22:07:42 10° NNE visible
28 Aug - 00:10:47 10° NNW 00:18:35 14° N 00:25:01 10° NNE visible
28 Aug - 02:27:34 10° NNW 02:36:58 25° NNE 02:43:11 10° ENE visible
28 Aug - 04:42:29 10° NW 04:51:06 86° NNE 04:56:04 10° SE visible
28 Aug - 13:43:00 10° S 13:48:17 17° SE 13:55:22 10° ESE daylight
28 Aug - 15:51:16 10° SW 16:01:39 67° SE 16:19:13 10° ENE daylight
28 Aug - 18:04:08 10° WSW 18:17:48 53° NNW 18:36:55 10° NE visible
28 Aug - 20:23:35 10° WNW 20:37:35 25° NNW 20:52:13 10° NNE visible
28 Aug - 22:50:35 10° NW 23:00:11 15° N 23:08:30 10° NNE visible
29 Aug - 01:11:09 10° NNW 01:20:50 20° NNE 01:27:51 10° ENE visible
29 Aug - 03:26:31 10° NW 03:36:59 47° NNE 03:42:57 10° ESE visible
29 Aug - 05:43:04 10° W 05:49:05 30° SW 05:53:09 10° SSE daylight
29 Aug - 14:38:43 10° SSW 14:46:53 39° SE 15:00:22 10° ENE daylight
29 Aug - 16:49:31 10° WSW 17:01:11 74° NW 17:20:07 10° NE daylight
29 Aug - 19:05:21 10° W 19:19:18 34° NNW 19:36:20 10° NNE visible
29 Aug - 21:29:17 10° NW 21:41:05 18° N 21:52:12 10° NNE visible
